SCP
0 0 0 0 -0 -0 0 0 0 0 0 0 0 0 0 0 0 0 0 0 0 0 0 0 0 0 0 0 0 0 0 0 0 0 0 0 0 0 0 0 0 0 0 0 0
0 0 0 0 0 -0 0 0 0 0 0 0 0 0 0 0 0 0 0 0 0 0 0 0 0 0 0 0 0 0 0 0 0 0 0 0 0 0 0 0 0 0 0 0 0
0 0 0 0 0 0 0 0 0 0 0 0 0 0 0 0 0 -0 0 0 0 0 0 0 0 0 0 0 0 0 0 0 0 0 0 0 0 0 0 0 0 0 0 0 0
0 0 0 0 0 0 0 0 0 0 0 0 0 0 0 0 -0 0 0 0 0 0 0 0 0 0 0 0 0 0 0 0 0 0 0 0 0 0 0 0 0 0 0 0 0
0 0 0 0 0 0 0 0 0 0 0 0 0 0 0 0 0 0 0 0 0 0 0 0 0 0 0 0 0 0 0 0 0 0 0 0 0 0 0 0 0 0 0 0 0
0 0 0 0 0 0 0 0 0 0 0 0 0 0 0 0 0 0 0 0 0 0 0 0 0 0 0 0 0 0 0 0 0 0 0 0 0 -0 0 0 0 0 0 0 0
0 0 -0 0 0 0 0 0 0 0 0 0 0 0 0 0 0 0 0 0 0 0 0 0 0 0 0 0 0 0 0 0 0 0 0 0 0 0 0 0 0 0 0 0 0
0 0 0 -0 0 0 0 0 0 0 0 0 0 0 0 0 0 0 0 0 0 0 0 0 0 0 0 0 0 0 0 0 0 0 0 0 0 0 0 0 0 0 0 0 0
0 0 0 -0 0 0 0 0 0 0 0 0 0 0 0 0 0 0 0 0 0 0 0 0 0 0 0 0 0 0 0 0 0 0 0 0 0 0 0 0 0 0 0 0 0
0 0 0 0 0 0 0 0 0 0 0 0 0 0 0 0 0 0 0 0 0 0 0 0 0 0 0 0 0 0 0 0 0 0 0 0 0 0 0 0 0 0 0 0 0
0 0 0 0 0 0 0 0 0 0 0 0 0 0 0 0 0 0 0 0 0 0 0 0 0 0 0 0 0 0 0 0 0 0 0 0 0 0 0 0 0 0 0 0 0
0 0 0 0 0 0 0 0 0 0 0 0 0 0 0 0 0 0 0 0 0 0 0 0 0 0 0 0 0 0 0 0 0 0 0 0 0 0 0 0 0 0 0 0 0
0 0 0 0 0 0 0 0 0 0 0 0 0 0 0 0 0 0 0 0 0 0 0 0 0 0 0 0 0 0 0 0 0 0 0 0 0 0 0 0 0 0 0 0 0
0 0 0 0 0 0 0 0 0 0 0 0 0 0 0 0 0 0 0 0 0 0 0 0 0 0 0 0 0 0 0 0 0 0 0 0 0 0 0 0 0 0 0 0 0
0 0 0 0 0 0 0 0 0 0 0 0 0 0 0 0 0 0 0 0 0 0 0 0 0 0 0 0 0 0 0 0 0 0 0 0 0 0 0 0 0 0 0 0 0
0 0 0 0 0 0 0 0 0 0 0 0 0 0 0 0 0 0 0 0 0 0 0 0 0 0 0 0 0 0 0 0 0 0 0 0 0 0 0 0 0 0 0 0 0
0 0 0 0 0 0 0 0 0 0 0 0 0 0 0 0 0 0 0 0 0 0 0 0 0 0 0 0 0 0 0 0 0 0 0 0 0 0 0 0 0 0 0 0 0
0 0 0 0 0 0 0 0 0 0 0 0 0 0 0 0 0 0 0 0 0 0 0 0 0 0 0 0 0 0 0 0 0 0 0 0 0 0 0 0 0 0 0 0 0
0 0 0 0 0 0 0 0 0 0 0 0 0 0 0 0 0 0 0 0 0 0 0 0 0 0 0 0 0 0 0 0 0 0 0 0 0 0 0 0 0 0 0 0 0
-0 0 0 0 0 0 0 0 0 0 0 0 0 0 0 0 0 0 0 0 0 0 0 0 0 0 0 0 0 0 0 0 0 0 0 0 0 0 0 0 0 0 0 0 0
-0 0 0 0 0 0 0 0 0 0 0 0 0 0 0 0 0 0 0 0 0 0 0 0 0 0 0 0 0 0 0 0 0 0 0 0 0 0 0 0 0 0 0 0 0
-0 0 0 0 0 0 0 0 0 0 0 0 0 0 0 0 0 0 0 0 0 0 0 0 0 0 0 0 0 0 0 0 0 0 0 0 0 0 0 0 0 0 0 0 0
-0 0 0 0 0 0 0 0 0 0 0 0 0 0 0 0 0 0 0 0 0 0 0 0 0 0 0 0 0 0 0 0 0 0 0 0 0 0 0 0 0 0 0 0 0
-0 0 0 0 0 0 0 0 0 0 0 0 0 0 0 0 0 0 0 0 0 0 0 0 0 0 0 0 0 0 0 0 0 0 0 0 0 0 0 0 0 0 0 0 0
0 0 0 0 0 0 0 0 0 0 0 0 0 0 0 0 0 0 0 0 0 0 0 0 0 0 0 0 0 0 0 0 0 0 0 0 0 0 0 0 0 0 0 0 0
0 0 0 0 0 0 0 0 0 0 0 0 0 0 0 0 0 0 0 0 0 0 0 0 0 0 0 0 0 0 0 0 0 0 0 0 0 0 0 0 0 0 0 0 0
0 0 0 0 0 0 0 0 0 0 0 0 0 0 0 0 0 0 0 0 0 0 0 0 0 0 0 0 0 0 0 0 0 0 0 0 0 0 0 0 0 0 0 0 0
Wind_Speed_500mb
18 15 34 23 12 8 7 7 4 4 3 5 13 17 16 17 21 20 26 16 46 28 34 25 25 22 24 20 9 9 8 12 9 11 2 4 6 5 4 6 7 9 11 13 13
20 14 21 39 25 15 16 12 9 6 7 5 5 13 16 17 18 22 14 20 28 36 25 36 29 27 13 12 10 9 9 14 6 9 5 3 3 2 5 6 11 16 25 28 25
41 15 10 16 36 24 17 18 16 11 8 8 11 9 9 10 10 12 22 30 27 28 24 32 29 20 10 8 9 6 6 7 5 9 6 6 6 5 6 15 24 19 11 20 22
40 38 16 24 36 40 32 25 22 17 14 14 11 10 7 15 11 10 13 30 30 34 36 38 37 18 15 16 18 10 17 5 3 10 7 7 4 10 17 30 21 23 28 31 29
39 50 28 22 26 47 41 36 26 22 20 14 11 9 7 10 7 5 9 35 34 39 41 37 39 17 15 11 11 11 6 10 15 17 15 13 25 15 31 39 39 38 44 43 36
31 41 33 25 29 37 38 44 32 25 25 15 11 10 9 7 8 8 17 28 36 37 38 34 25 20 6 6 17 5 17 13 10 14 10 8 16 2 8 4 13 17 20 23 21
24 41 32 38 23 29 46 45 36 25 21 17 14 11 10 12 9 15 19 24 28 37 35 29 14 20 9 5 5 1 8 11 17 4 6 7 17 18 21 21 21 18 18 23 20
24 36 34 24 35 29 40 42 39 33 28 22 15 10 7 11 14 17 23 32 33 29 26 28 19 18 6 7 2 4 6 9 6 3 2 3 14 4 3 3 10 19 21 23 28
22 32 26 24 41 28 29 31 42 33 31 23 19 13 6 14 20 23 24 29 32 27 27 27 24 10 14 7 4 6 7 11 2 1 3 10 13 2 4 25 37 31 29 30 41
25 31 24 26 23 38 19 32 36 38 33 24 13 9 13 13 26 27 25 31 24 30 26 17 7 7 7 10 10 9 8 9 9 4 9 17 30 32 30 24 35 40 35 26 26
22 30 32 25 17 34 24 24 21 14 45 10 19 6 24 25 30 28 30 35 37 18 12 7 15 25 24 17 2 6 2 3 4 2 6 8 25 30 40 25 26 30 28 25 22
33 29 26 29 17 29 33 11 8 14 12 10 27 16 28 30 14 31 38 14 20 17 18 11 25 16 12 13 17 5 4 4 2 3 6 15 35 22 15 19 34 39 38 32 30
25 23 21 17 15 25 40 26 17 19 8 8 19 12 22 21 9 35 39 20 11 16 23 16 2 25 18 17 21 19 18 8 6 6 2 15 12 6 10 21 34 43 39 37 38
11 7 9 12 15 23 41 39 8 10 7 7 10 9 20 17 7 33 36 14 5 19 14 8 8 23 22 14 20 18 16 13 5 4 5 8 8 9 6 15 32 47 48 44 43
7 5 6 13 16 26 32 44 18 7 14 14 9 8 23 12 30 19 24 7 17 14 11 8 12 21 13 11 17 1 8 11 6 6 5 3 5 4 8 8 32 44 46 46 42
4 4 12 20 23 25 48 54 22 1 7 10 10 12 21 8 5 18 17 7 12 10 7 5 2 2 3 7 14 20 12 10 6 3 6 5 6 1 8 12 19 34 40 43 43
12 10 21 29 25 31 53 51 8 4 2 14 10 15 32 13 12 16 24 16 12 14 14 3 3 1 6 12 8 3 13 5 5 7 7 3 7 6 7 12 18 25 34 38 39
16 12 22 29 30 36 38 7 8 3 8 9 11 29 17 22 10 14 25 18 7 4 13 17 10 16 10 5 11 15 7 7 9 7 6 4 11 3 14 15 17 23 27 33 40
10 14 18 27 25 27 26 10 8 11 7 18 24 23 9 11 12 12 23 19 13 12 2 13 6 3 0 4 6 12 12 3 11 3 3 6 6 11 14 19 26 30 35 40 38
9 18 13 27 27 18 7 9 3 3 5 6 13 10 13 20 10 17 21 4 6 13 12 5 8 1 2 4 4 7 13 7 1 10 11 5 6 3 11 15 19 29 36 35 34
7 7 8 16 17 9 10 6 6 2 7 4 8 10 14 13 9 13 17 5 4 9 18 3 1 4 5 13 18 7 7 2 3 3 7 8 5 9 9 10 14 23 28 30 33
6 5 7 21 7 7 6 6 3 6 14 12 9 15 9 10 7 4 7 10 12 3 19 7 4 8 5 2 3 2 6 11 8 8 3 3 4 7 13 13 14 19 22 26 30
8 5 15 10 6 6 5 8 15 12 13 10 9 10 12 7 8 6 8 10 20 8 11 14 6 9 4 3 2 7 8 3 6 3 12 8 5 10 13 14 15 18 21 24 29
6 3 17 21 11 7 7 7 10 18 11 12 8 7 7 9 18 8 5 11 10 17 16 9 4 4 7 6 3 8 8 9 15 8 10 15 12 19 13 11 12 15 17 21 26
9 6 3 5 12 14 5 5 8 9 6 21 10 14 2 8 6 8 8 4 12 24 8 5 4 4 6 6 6 5 4 3 20 19 15 5 7 21 13 12 11 10 12 18 23
10 9 16 9 7 9 16 9 9 4 12 9 15 19 11 11 7 7 3 9 5 13 6 6 5 3 4 7 4 3 3 4 0 3 7 8 9 11 17 15 10 11 13 18 21
30 23 12 19 6 5 6 5 6 6 21 17 8 12 28 11 10 12 10 10 7 5 5 4 3 2 5 6 7 6 2 2 5 9 5 8 7 19 13 14 13 12 14 16 20
Wind_Direction_500mb
236 204 243 258 248 227 172 150 151 175 185 219 207 205 188 196 224 210 232 201 190 204 214 198 178 185 178 177 187 168 224 222 203 198 186 194 212 194 219 224 216 222 235 244 258
266 229 244 236 229 207 185 193 197 196 244 233 221 213 206 187 221 237 223 204 200 202 192 189 175 167 184 168 179 232 218 208 216 205 205 225 267 283 229 197 241 248 255 262 267
260 273 253 270 226 212 206 215 211 217 235 252 248 241 214 193 189 227 201 210 196 187 179 188 185 168 177 152 193 198 252 208 212 228 239 253 250 233 234 260 241 258 257 263 264
265 259 280 238 234 211 214 220 214 220 226 239 242 230 216 173 203 175 184 198 185 184 172 170 173 183 178 179 191 210 231 229 241 219 207 243 285 254 224 251 274 273 264 268 262
265 265 254 216 212 218 223 217 211 222 216 220 216 224 198 188 199 108 131 173 180 169 180 171 170 174 197 184 158 229 237 218 246 250 258 266 258 269 266 270 272 266 269 266 257
259 260 260 248 193 181 180 206 208 212 216 202 205 214 192 221 189 155 159 169 176 174 173 177 176 171 157 175 206 231 238 254 274 258 252 264 274 7 262 292 289 270 271 266 265
230 257 264 236 221 195 193 196 201 200 196 212 221 203 192 190 172 181 165 171 165 185 182 178 156 168 151 171 209 188 291 246 226 250 247 238 258 232 265 285 286 272 278 263 273
220 248 257 265 230 222 202 200 203 196 192 206 209 193 225 205 182 172 171 167 177 184 174 177 165 164 122 123 48 216 244 249 85 124 32 54 264 202 206 126 328 303 288 287 291
203 238 246 271 235 215 204 202 205 201 197 198 198 183 213 190 174 168 168 170 159 160 166 166 163 155 141 166 185 184 258 229 263 55 65 203 280 218 160 311 307 306 307 301 303
194 220 220 253 243 220 202 193 177 176 166 175 191 186 213 186 167 166 160 154 143 150 131 144 116 158 151 179 217 182 211 223 197 133 219 230 263 290 299 309 309 316 318 326 334
203 210 210 235 230 214 201 149 164 183 169 184 196 144 148 149 156 161 157 149 142 146 151 124 191 206 192 199 316 126 209 203 120 51 278 266 290 289 300 346 5 360 348 355 4
160 190 206 234 210 210 189 185 179 145 161 163 151 134 149 147 127 162 159 138 154 161 125 148 222 195 174 184 217 162 145 270 299 348 310 315 297 297 23 61 50 29 22 12 5
158 184 212 244 246 207 183 187 143 130 117 165 191 159 160 162 135 169 171 143 140 152 174 171 147 172 163 185 205 225 229 190 247 306 154 303 282 30 74 98 44 31 24 21 12
137 166 216 226 213 189 179 200 161 135 137 176 181 190 172 154 90 167 171 147 140 174 166 225 131 157 179 183 198 230 218 187 220 226 275 337 290 311 18 120 31 16 17 15 10
100 136 181 181 174 161 174 184 139 67 161 140 138 188 159 155 130 173 166 134 157 141 180 169 163 150 177 208 184 193 144 141 125 164 297 193 249 229 18 3 5 5 5 10 11
59 139 154 151 164 166 157 169 150 180 137 160 134 158 153 134 76 138 166 117 115 94 41 85 9 168 107 65 186 141 101 73 78 155 235 149 240 283 11 337 338 356 7 10 12
68 116 153 149 164 158 154 140 95 217 298 155 158 166 166 144 122 162 173 169 158 140 170 139 135 307 153 106 85 248 167 142 184 193 240 33 222 2 77 21 2 356 8 14 19
62 98 152 163 172 163 165 123 155 170 186 128 143 155 170 150 131 162 163 182 227 121 143 168 189 187 171 197 191 196 241 216 207 194 154 124 227 133 95 62 38 28 27 29 28
77 106 136 160 178 171 167 189 147 191 137 133 135 154 144 153 136 149 183 189 205 204 195 170 138 47 350 137 183 171 217 63 108 61 278 188 131 144 136 52 35 31 35 29 31
106 86 77 158 196 169 129 96 88 343 357 196 153 165 159 167 139 173 173 178 196 194 301 142 122 79 86 152 72 248 150 149 260 173 211 198 248 136 191 24 26 28 28 26 31
117 88 41 170 183 98 164 99 113 318 2 2 141 122 137 147 147 165 169 79 24 164 196 162 36 106 170 208 179 156 193 112 190 246 190 171 157 10 85 59 44 38 32 28 29
67 71 55 153 59 47 110 108 143 20 26 51 71 63 113 129 98 108 121 24 326 266 183 159 52 162 186 35 348 6 218 190 197 188 268 335 149 103 100 81 61 52 40 35 37
80 76 59 147 131 111 84 84 56 38 28 41 56 25 58 73 120 101 100 13 31 55 143 161 180 143 162 219 131 216 191 182 88 89 194 180 154 150 124 89 69 63 48 41 37
107 83 41 61 46 80 107 60 103 32 56 54 60 64 98 61 37 99 99 32 21 24 42 84 153 264 236 68 75 168 196 205 216 225 231 239 146 188 166 114 76 62 54 45 38
72 84 50 67 36 78 68 59 82 48 36 26 57 41 115 105 75 66 43 95 43 0 37 69 104 133 74 100 63 73 74 204 223 241 238 166 99 164 153 124 94 65 46 37 29
109 129 89 61 73 52 15 31 65 93 8 26 86 59 95 95 43 120 35 23 26 353 61 1 103 112 74 59 76 142 49 226 300 347 278 151 111 134 125 118 96 60 44 38 30
95 96 103 23 36 88 31 105 141 165 46 62 101 91 64 76 81 84 69 78 64 44 49 32 96 66 108 20 143 201 24 330 104 50 342 225 87 153 142 119 98 88 65 42 24
Wind_Speed_850mb
18 15 34 23 12 8 7 7 4 4 3 5 13 17 16 17 21 20 26 16 46 28 34 25 25 22 24 20 9 9 8 12 9 11 2 4 6 5 4 6 7 9 11 13 13
20 14 21 39 25 15 16 12 9 6 7 5 5 13 16 17 18 22 14 20 28 36 25 36 29 27 13 12 10 9 9 14 6 9 5 3 3 2 5 6 11 16 25 28 25
41 15 10 16 36 24 17 18 16 11 8 8 11 9 9 10 10 12 22 30 27 28 24 32 29 20 10 8 9 6 6 7 5 9 6 6 6 5 6 15 24 19 11 20 22
40 38 16 24 36 40 32 25 22 17 14 14 11 10 7 15 11 10 13 30 30 34 36 38 37 18 15 16 18 10 17 5 3 10 7 7 4 10 17 30 21 23 28 31 29
39 50 28 22 26 47 41 36 26 22 20 14 11 9 7 10 7 5 9 35 34 39 41 37 39 17 15 11 11 11 6 10 15 17 15 13 25 15 31 39 39 38 44 43 36
31 41 33 25 29 37 38 44 32 25 25 15 11 10 9 7 8 8 17 28 36 37 38 34 25 20 6 6 17 5 17 13 10 14 10 8 16 2 8 4 13 17 20 23 21
24 41 32 38 23 29 46 45 36 25 21 17 14 11 10 12 9 15 19 24 28 37 35 29 14 20 9 5 5 1 8 11 17 4 6 7 17 18 21 21 21 18 18 23 20
24 36 34 24 35 29 40 42 39 33 28 22 15 10 7 11 14 17 23 32 33 29 26 28 19 18 6 7 2 4 6 9 6 3 2 3 14 4 3 3 10 19 21 23 28
22 32 26 24 41 28 29 31 42 33 31 23 19 13 6 14 20 23 24 29 32 27 27 27 24 10 14 7 4 6 7 11 2 1 3 10 13 2 4 25 37 31 29 30 41
25 31 24 26 23 38 19 32 36 38 33 24 13 9 13 13 26 27 25 31 24 30 26 17 7 7 7 10 10 9 8 9 9 4 9 17 30 32 30 24 35 40 35 26 26
22 30 32 25 17 34 24 24 21 14 45 10 19 6 24 25 30 28 30 35 37 18 12 7 15 25 24 17 2 6 2 3 4 2 6 8 25 30 40 25 26 30 28 25 22
33 29 26 29 17 29 33 11 8 14 12 10 27 16 28 30 14 31 38 14 20 17 18 11 25 16 12 13 17 5 4 4 2 3 6 15 35 22 15 19 34 39 38 32 30
25 23 21 17 15 25 40 26 17 19 8 8 19 12 22 21 9 35 39 20 11 16 23 16 2 25 18 17 21 19 18 8 6 6 2 15 12 6 10 21 34 43 39 37 38
11 7 9 12 15 23 41 39 8 10 7 7 10 9 20 17 7 33 36 14 5 19 14 8 8 23 22 14 20 18 16 13 5 4 5 8 8 9 6 15 32 47 48 44 43
7 5 6 13 16 26 32 44 18 7 14 14 9 8 23 12 30 19 24 7 17 14 11 8 12 21 13 11 17 1 8 11 6 6 5 3 5 4 8 8 32 44 46 46 42
4 4 12 20 23 25 48 54 22 1 7 10 10 12 21 8 5 18 17 7 12 10 7 5 2 2 3 7 14 20 12 10 6 3 6 5 6 1 8 12 19 34 40 43 43
12 10 21 29 25 31 53 51 8 4 2 14 10 15 32 13 12 16 24 16 12 14 14 3 3 1 6 12 8 3 13 5 5 7 7 3 7 6 7 12 18 25 34 38 39
16 12 22 29 30 36 38 7 8 3 8 9 11 29 17 22 10 14 25 18 7 4 13 17 10 16 10 5 11 15 7 7 9 7 6 4 11 3 14 15 17 23 27 33 40
10 14 18 27 25 27 26 10 8 11 7 18 24 23 9 11 12 12 23 19 13 12 2 13 6 3 0 4 6 12 12 3 11 3 3 6 6 11 14 19 26 30 35 40 38
9 18 13 27 27 18 7 9 3 3 5 6 13 10 13 20 10 17 21 4 6 13 12 5 8 1 2 4 4 7 13 7 1 10 11 5 6 3 11 15 19 29 36 35 34
7 7 8 16 17 9 10 6 6 2 7 4 8 10 14 13 9 13 17 5 4 9 18 3 1 4 5 13 18 7 7 2 3 3 7 8 5 9 9 10 14 23 28 30 33
6 5 7 21 7 7 6 6 3 6 14 12 9 15 9 10 7 4 7 10 12 3 19 7 4 8 5 2 3 2 6 11 8 8 3 3 4 7 13 13 14 19 22 26 30
8 5 15 10 6 6 5 8 15 12 13 10 9 10 12 7 8 6 8 10 20 8 11 14 6 9 4 3 2 7 8 3 6 3 12 8 5 10 13 14 15 18 21 24 29
6 3 17 21 11 7 7 7 10 18 11 12 8 7 7 9 18 8 5 11 10 17 16 9 4 4 7 6 3 8 8 9 15 8 10 15 12 19 13 11 12 15 17 21 26
9 6 3 5 12 14 5 5 8 9 6 21 10 14 2 8 6 8 8 4 12 24 8 5 4 4 6 6 6 5 4 3 20 19 15 5 7 21 13 12 11 10 12 18 23
10 9 16 9 7 9 16 9 9 4 12 9 15 19 11 11 7 7 3 9 5 13 6 6 5 3 4 7 4 3 3 4 0 3 7 8 9 11 17 15 10 11 13 18 21
30 23 12 19 6 5 6 5 6 6 21 17 8 12 28 11 10 12 10 10 7 5 5 4 3 2 5 6 7 6 2 2 5 9 5 8 7 19 13 14 13 12 14 16 20
Wind_Direction_850mb
236 204 243 258 248 227 172 150 151 175 185 219 207 205 188 196 224 210 232 201 190 204 214 198 178 185 178 177 187 168 224 222 203 198 186 194 212 194 219 224 216 222 235 244 258
266 229 244 236 229 207 185 193 197 196 244 233 221 213 206 187 221 237 223 204 200 202 192 189 175 167 184 168 179 232 218 208 216 205 205 225 267 283 229 197 241 248 255 262 267
260 273 253 270 226 212 206 215 211 217 235 252 248 241 214 193 189 227 201 210 196 187 179 188 185 168 177 152 193 198 252 208 212 228 239 253 250 233 234 260 241 258 257 263 264
265 259 280 238 234 211 214 220 214 220 226 239 242 230 216 173 203 175 184 198 185 184 172 170 173 183 178 179 191 210 231 229 241 219 207 243 285 254 224 251 274 273 264 268 262
265 265 254 216 212 218 223 217 211 222 216 220 216 224 198 188 199 108 131 173 180 169 180 171 170 174 197 184 158 229 237 218 246 250 258 266 258 269 266 270 272 266 269 266 257
259 260 260 248 193 181 180 206 208 212 216 202 205 214 192 221 189 155 159 169 176 174 173 177 176 171 157 175 206 231 238 254 274 258 252 264 274 7 262 292 289 270 271 266 265
230 257 264 236 221 195 193 196 201 200 196 212 221 203 192 190 172 181 165 171 165 185 182 178 156 168 151 171 209 188 291 246 226 250 247 238 258 232 265 285 286 272 278 263 273
220 248 257 265 230 222 202 200 203 196 192 206 209 193 225 205 182 172 171 167 177 184 174 177 165 164 122 123 48 216 244 249 85 124 32 54 264 202 206 126 328 303 288 287 291
203 238 246 271 235 215 204 202 205 201 197 198 198 183 213 190 174 168 168 170 159 160 166 166 163 155 141 166 185 184 258 229 263 55 65 203 280 218 160 311 307 306 307 301 303
194 220 220 253 243 220 202 193 177 176 166 175 191 186 213 186 167 166 160 154 143 150 131 144 116 158 151 179 217 182 211 223 197 133 219 230 263 290 299 309 309 316 318 326 334
203 210 210 235 230 214 201 149 164 183 169 184 196 144 148 149 156 161 157 149 142 146 151 124 191 206 192 199 316 126 209 203 120 51 278 266 290 289 300 346 5 360 348 355 4
160 190 206 234 210 210 189 185 179 145 161 163 151 134 149 147 127 162 159 138 154 161 125 148 222 195 174 184 217 162 145 270 299 348 310 315 297 297 23 61 50 29 22 12 5
158 184 212 244 246 207 183 187 143 130 117 165 191 159 160 162 135 169 171 143 140 152 174 171 147 172 163 185 205 225 229 190 247 306 154 303 282 30 74 98 44 31 24 21 12
137 166 216 226 213 189 179 200 161 135 137 176 181 190 172 154 90 167 171 147 140 174 166 225 131 157 179 183 198 230 218 187 220 226 275 337 290 311 18 120 31 16 17 15 10
100 136 181 181 174 161 174 184 139 67 161 140 138 188 159 155 130 173 166 134 157 141 180 169 163 150 177 208 184 193 144 141 125 164 297 193 249 229 18 3 5 5 5 10 11
59 139 154 151 164 166 157 169 150 180 137 160 134 158 153 134 76 138 166 117 115 94 41 85 9 168 107 65 186 141 101 73 78 155 235 149 240 283 11 337 338 356 7 10 12
68 116 153 149 164 158 154 140 95 217 298 155 158 166 166 144 122 162 173 169 158 140 170 139 135 307 153 106 85 248 167 142 184 193 240 33 222 2 77 21 2 356 8 14 19
62 98 152 163 172 163 165 123 155 170 186 128 143 155 170 150 131 162 163 182 227 121 143 168 189 187 171 197 191 196 241 216 207 194 154 124 227 133 95 62 38 28 27 29 28
77 106 136 160 178 171 167 189 147 191 137 133 135 154 144 153 136 149 183 189 205 204 195 170 138 47 350 137 183 171 217 63 108 61 278 188 131 144 136 52 35 31 35 29 31
106 86 77 158 196 169 129 96 88 343 357 196 153 165 159 167 139 173 173 178 196 194 301 142 122 79 86 152 72 248 150 149 260 173 211 198 248 136 191 24 26 28 28 26 31
117 88 41 170 183 98 164 99 113 318 2 2 141 122 137 147 147 165 169 79 24 164 196 162 36 106 170 208 179 156 193 112 190 246 190 171 157 10 85 59 44 38 32 28 29
67 71 55 153 59 47 110 108 143 20 26 51 71 63 113 129 98 108 121 24 326 266 183 159 52 162 186 35 348 6 218 190 197 188 268 335 149 103 100 81 61 52 40 35 37
80 76 59 147 131 111 84 84 56 38 28 41 56 25 58 73 120 101 100 13 31 55 143 161 180 143 162 219 131 216 191 182 88 89 194 180 154 150 124 89 69 63 48 41 37
107 83 41 61 46 80 107 60 103 32 56 54 60 64 98 61 37 99 99 32 21 24 42 84 153 264 236 68 75 168 196 205 216 225 231 239 146 188 166 114 76 62 54 45 38
72 84 50 67 36 78 68 59 82 48 36 26 57 41 115 105 75 66 43 95 43 0 37 69 104 133 74 100 63 73 74 204 223 241 238 166 99 164 153 124 94 65 46 37 29
109 129 89 61 73 52 15 31 65 93 8 26 86 59 95 95 43 120 35 23 26 353 61 1 103 112 74 59 76 142 49 226 300 347 278 151 111 134 125 118 96 60 44 38 30
95 96 103 23 36 88 31 105 141 165 46 62 101 91 64 76 81 84 69 78 64 44 49 32 96 66 108 20 143 201 24 330 104 50 342 225 87 153 142 119 98 88 65 42 24